This is the latest recevied weather packets stored in our database for station/object KQ4PPF. If no packets are shown the sender has not sent any weather packets the latest 1 day(s).
| Time | Temp. | Humidity | Pressure | Rain* | Wind** | Luminosity | Snow |
|---|---|---|---|---|---|---|---|
| 1778017605 | 21.67° C | 55% | 1010.6 hPa | 0 mm | 0 m/s | 89 W/m² | - |
| 1778017302 | 22.22° C | 54% | 1011.1 hPa | 0 mm | 0 m/s | 91 W/m² | - |
| 1778017000 | 22.22° C | 54% | 1011.1 hPa | 0 mm | 0 m/s | 102 W/m² | - |
| 1778016696 | 22.78° C | 53% | 1011.3 hPa | 0 mm | 0 m/s | 89 W/m² | - |
| 1778016392 | 23.33° C | 48% | 1011.2 hPa | 0 mm | 0 m/s | 76 W/m² | - |
| 1778016090 | 23.33° C | 44% | 1010.9 hPa | 0 mm | 0 m/s | 39 W/m² | - |
| 1778015787 | 23.89° C | 45% | 1011.4 hPa | 0 mm | 0.45 m/s, 322° | 47 W/m² | - |
| 1778015484 | 23.89° C | 46% | 1011.3 hPa | 0 mm | 0 m/s | 50 W/m² | - |
| 1778015180 | 23.89° C | 47% | 1011.3 hPa | 0 mm | 0 m/s | 73 W/m² | - |
| 1778014877 | 24.44° C | 45% | 1011.4 hPa | 0 mm | 0 m/s | 95 W/m² | - |
| 1778014575 | 24.44° C | 44% | 1011.1 hPa | 0 mm | 0 m/s | 92 W/m² | - |
| 1778014273 | 24.44° C | 44% | 1011.5 hPa | 0 mm | 0 m/s | 95 W/m² | - |
| 1778013970 | 24.44° C | 43% | 1011.4 hPa | 0 mm | 0.45 m/s, 339° | 107 W/m² | - |
| 1778013667 | 24.44° C | 43% | 1011.4 hPa | 0 mm | 0 m/s | 120 W/m² | - |
| 1778013363 | 25° C | 45% | 1011.3 hPa | 0 mm | 0 m/s | 131 W/m² | - |
| 1778013061 | 25° C | 46% | 1011.3 hPa | 0 mm | 0 m/s | 135 W/m² | - |
| 1778012756 | 25° C | 44% | 1011.4 hPa | 0 mm | 0 m/s | 131 W/m² | - |
| 1778012453 | 25° C | 43% | 1011.6 hPa | 0 mm | 0 m/s | 136 W/m² | - |
| 1778012149 | 25° C | 43% | 1011.6 hPa | 0 mm | 0 m/s | 146 W/m² | - |
| 1778011847 | 25.56° C | 43% | 1011.8 hPa | 0 mm | 1.34 m/s, 2° | 108 W/m² | - |
| 1778011545 | 25.56° C | 43% | 1011.9 hPa | 0 mm | 0 m/s | 99 W/m² | - |
| 1778011242 | 25.56° C | 41% | 1011.8 hPa | 0 mm | 0.89 m/s, 331° | 60 W/m² | - |
| 1778010932 | 25.56° C | 44% | 1012.2 hPa | 0 mm | 0 m/s | 82 W/m² | - |
| 1778010630 | 25.56° C | 45% | 1011.7 hPa | 0 mm | 0.45 m/s, 23° | 63 W/m² | - |
| 1778010327 | 25.56° C | 45% | 1011.7 hPa | 0 mm | 0 m/s | 79 W/m² | - |
* Rain latest hour (hover to see other rain measurements)
** Current wind speed in m/s (hover to see current wind gust speed)